Weather observations for the past three days for
St. Louis, Spirit Of St. Louis Airport
Imperial (Metric)
Date Time (cdt) Wind (mph) Vis. (mi.) Weather Sky Cond. Temperature (ºF) Relative Humidity Wind Chill (°F) Heat Index (°F) Pressure Precipitation (in)
Air Dwpt 6 hour altimeter (in) sea level (mb) 1 hr 3 hr 6 hr
Max. Min.
01 16:54 W 7 10.00 Fair CLR 98.1 66.9 36% 103 29.96 1013.3
01 15:54 S 3 10.00 A Few Clouds FEW080 99 66.9 35% 104 29.97 1013.7
01 14:54 SW 7 10.00 Fair CLR 98.1 66.9 36% 103 29.99 1014.4
01 13:54 S 3 10.00 Fair CLR 96.1 71.1 44% 104 30.01 1015.1
01 12:54 W 5 10.00 Fair CLR 95 69.1 95 72 43% 101 30.02 1015.6
01 11:54 W 6 10.00 Fair CLR 91.9 71.1 51% 99 30.04 1016.1
01 10:54 W 7 10.00 Fair CLR 90 71.1 54% 96 30.05 1016.5
01 09:54 W 8 10.00 Fair CLR 87.1 71.1 59% 93 30.05 1016.4
01 08:54 SW 6 10.00 Fair CLR 82.9 70 65% 87 30.05 1016.6
01 07:54 Calm 10.00 Fair CLR 78.1 69.1 74% 80 30.05 1016.6
01 06:54 Calm 10.00 Fair CLR 72 66.9 79 71.1 84% 30.03 1016.0
01 05:54 Calm 10.00 Fair CLR 73.9 66.9 79% 30.02 1015.5
01 04:54 W 3 10.00 Fair CLR 75.9 66.9 74% 77 30.01 1015.1
01 03:54 Calm 10.00 Fair CLR 71.1 69.1 94% 30 1015.0
01 02:54 Calm 10.00 Fair CLR 72 69.1 91% 30 1014.7
01 01:54 Calm 10.00 Fair CLR 72 69.1 91% 29.99 1014.6
01 00:54 W 3 10.00 Fair CLR 79 69.1 87.1 79 72% 82 29.99 1014.5
31 22:54 S 7 10.00 Fair CLR 84 68 59% 87 29.99 1014.5
31 21:54 S 7 10.00 Fair CLR 84.9 69.1 59% 89 29.98 1014.2
31 20:54 S 8 10.00 Fair CLR 84.9 70 61% 89 29.97 1013.9
31 19:54 S 6 10.00 Fair CLR 86 71.1 61% 92 29.96 1013.5
31 18:54 Calm 10.00 Fair CLR 87.1 75.9 97 87.1 70% 98 29.95 1013.5
31 17:54 S 7 10.00 Fair CLR 95 70 44% 101 29.95 1013.4
31 16:54 S 8 10.00 Fair CLR 96.1 70 43% 103 29.96 1013.5
31 15:54 Vrbl 6 10.00 Fair CLR 97 70 42% 104 29.96 1013.5
31 14:54 SW 10 10.00 Fair CLR 96.1 69.1 41% 102 29.97 1013.9
31 13:54 W 9 10.00 Fair CLR 95 68 41% 100 29.99 1014.5
31 12:54 W 9 10.00 Fair CLR 93 69.1 93 64.9 46% 98 30.01 1015.1
31 11:54 SW 8 10.00 Fair CLR 90 68 48% 94 30.03 1016.0
31 10:54 W 10 10.00 Fair CLR 88 66.9 50% 91 30.04 1016.1
31 09:54 SW 10 10.00 Fair CLR 84 64.9 53% 86 30.03 1015.9
31 08:54 SW 9 10.00 Fair CLR 81 63 54% 82 30.02 1015.8
31 07:54 Calm 10.00 Fair CLR 72 64.9 79% 30.02 1015.7
31 06:54 Calm 10.00 Fair CLR 64.9 63 78.1 64 93% 30 1015.1
31 05:54 Calm 10.00 Fair CLR 64.9 63 93% 30 1014.9
31 04:54 Calm 10.00 Fair CLR 66 63 90% 29.99 1014.6
31 03:54 Calm 10.00 Fair CLR 66 63 90% 29.99 1014.5
31 02:54 Calm 10.00 Fair CLR 68 63 84% 29.97 1014.1
31 01:54 Calm 10.00 Fair CLR 70 63 79% 29.98 1014.3
31 00:54 SW 5 10.00 Fair CLR 78.1 60.1 88 72 54% 79 29.99 1014.4
30 23:54 Calm 10.00 Fair CLR 72 64.9 79% 29.98 1014.4
30 22:54 Calm 10.00 Fair CLR 81 61 51% 82 29.98 1014.1
30 21:54 S 5 10.00 Fair CLR 82 63 53% 83 29.97 1013.8
30 20:54 S 3 10.00 Fair CLR 81 64 57% 83 29.96 1013.8
30 19:54 S 3 10.00 Fair CLR 84.9 64.9 51% 87 29.95 1013.1
30 18:54 S 5 10.00 Fair CLR 88 68 95 88 52% 92 29.94 1013.2
30 17:54 S 3 10.00 Fair CLR 93 66.9 42% 97 29.95 1013.2
30 16:54 SW 5 10.00 Fair CLR 95 66 39% 98 29.95 1013.2
30 15:54 S 6 10.00 Fair CLR 93.9 63 36% 95 29.96 1013.4
30 14:54 SW 5 10.00 Fair CLR 93.9 62.1 35% 95 29.98 1014.1
30 12:54 Vrbl 3 10.00 Fair CLR 91 62.1 91 68 38% 92 30.01 1015.3
30 11:54 SW 9 10.00 Fair CLR 88 61 40% 88 30.03 1016.2
30 10:54 SW 8 10.00 Fair CLR 84.9 62.1 46% 85 30.04 1016.3
30 09:54 SW 9 10.00 Fair CLR 81 62.1 53% 82 30.03 1016.0
30 08:54 SW 7 10.00 Fair CLR 77 62.1 60% 79 30.02 1016.0
30 07:54 NW 3 10.00 Fair CLR 72 63 73% 30.03 1016.3
30 06:54 SW 5 10.00 Fair CLR 68 61 73 64.9 78% 30.02 1015.8
30 05:54 Calm 10.00 Fair CLR 66 62.1 87% 30.01 1015.5
30 04:54 Calm 10.00 Fair CLR 69.1 61 76% 30.01 1015.3
30 03:54 Calm 10.00 Fair CLR 71.1 62.1 73% 30.01 1015.3
30 02:54 S 5 10.00 Fair CLR 73 62.1 69% 30.02 1015.5
30 01:54 Calm 10.00 Fair CLR 68 63 84% 30.02 1015.8
30 00:54 Calm 10.00 Fair CLR 68 63 82.9 66 84% 30.03 1016.0
29 23:54 Calm 10.00 Fair CLR 66.9 64 91% 30.03 1016.1
29 21:54 Calm 10.00 Fair CLR 69.1 64 84% 30.03 1016.1
29 20:54 Calm 10.00 Fair CLR 70 66 87% 30.01 1015.7
29 19:54 Calm 10.00 Fair CLR 73.9 66 76% 30 1015.3
29 18:54 SE 5 10.00 Fair CLR 82.9 63 88 82.9 51% 84 30.01 1015.5
29 17:54 SE 7 10.00 Fair CLR 86 64.9 49% 88 30.01 1015.6
Date Time (cdt) Wind (mph) Vis. (mi.) Weather Sky Cond. Air Dwpt Max. Min. Relative Humidity Wind Chill (°F) Heat Index (°F) altimeter (in) sea level (mb) 1 hr 3 hr 6 hr
6 hour
Temperature (ºF) Pressure Precipitation (in)